Location: Sternwarte Stuttgart
(48.7670°N, 9.1830°E)
Time: 09:20:15
(UTC+02:00)

ISS - All Passes

Search period start: 29 August 2015 00:00
Search period end: 08 September 2015 00:00
Orbit: 399 x 401 km, 51.6° (Epoch: 28 August)

Date Brightness Start Highest point End Pass type
(mag) Time Alt. Az. Time Alt. Az. Time Alt. Az.
29 Aug - 11:35:37 10° SW 11:38:45 48° SSE 11:41:54 10° ENE daylight
29 Aug - 13:11:56 10° W 13:15:09 56° N 13:18:22 10° ENE daylight
29 Aug - 14:48:36 10° WNW 14:51:49 54° N 14:55:02 10° E daylight
29 Aug - 16:25:03 10° WNW 16:28:14 51° SSW 16:31:24 10° SE daylight
30 Aug - 10:42:26 10° SSW 10:45:18 29° SE 10:48:11 10° E daylight
30 Aug - 12:18:16 10° WSW 12:21:31 71° NNW 12:24:46 10° ENE daylight
30 Aug - 13:54:59 10° WNW 13:58:09 49° N 14:01:20 10° E daylight
30 Aug - 15:31:27 10° WNW 15:34:43 80° SSW 15:37:57 10° ESE daylight
30 Aug - 17:08:28 10° W 17:10:43 17° SW 17:12:55 10° S daylight
31 Aug - 09:49:37 10° S 09:51:52 18° SE 09:54:11 10° E daylight
31 Aug - 11:24:39 10° WSW 11:27:54 82° SSE 11:31:10 10° ENE daylight
31 Aug - 13:01:17 10° W 13:04:27 48° N 13:07:38 10° ENE daylight
31 Aug - 14:37:50 10° WNW 14:41:06 73° NNE 14:44:21 10° ESE daylight
31 Aug - 16:14:27 10° W 16:17:18 28° SW 16:20:08 10° SSE daylight
01 Sep - 08:57:56 10° SE 08:58:29 10° SE 08:59:10 10° ESE daylight
01 Sep - 10:31:09 10° SW 10:34:19 53° SSE 10:37:31 10° ENE daylight
01 Sep - 12:07:33 10° W 12:10:45 54° N 12:13:57 10° ENE daylight
01 Sep - 13:44:12 10° WNW 13:47:25 57° NNE 13:50:38 10° E daylight
01 Sep - 15:20:39 10° WNW 15:23:47 46° SSW 15:26:55 10° SE daylight
02 Sep - 09:37:50 10° SSW 09:40:47 32° SE 09:43:45 10° E daylight
02 Sep - 11:13:47 10° W 11:17:02 67° NNW 11:20:17 10° ENE daylight
02 Sep - 12:50:30 10° WNW 12:53:41 49° N 12:56:52 10° E daylight
02 Sep - 14:26:57 10° WNW 14:30:12 74° SSW 14:33:26 10° ESE daylight
02 Sep - 16:04:07 10° W 16:06:10 16° SW 16:08:09 10° S daylight
03 Sep - 08:44:51 10° S 08:47:16 20° SE 08:49:44 10° E daylight
03 Sep - 10:20:05 10° WSW 10:23:20 88° SSE 10:26:36 10° ENE daylight
03 Sep - 11:56:44 10° WNW 11:59:55 48° N 12:03:05 10° ENE daylight
03 Sep - 13:33:15 10° WNW 13:36:31 77° NNE 13:39:46 10° ESE daylight
03 Sep - 15:09:55 10° W 15:12:41 26° SW 15:15:25 10° SSE daylight
04 Sep - 07:52:37 10° SSE 07:53:48 12° SE 07:55:04 10° ESE daylight
04 Sep - 09:26:28 10° SW 09:29:39 58° SSE 09:32:52 10° ENE daylight
04 Sep - 11:02:55 10° W 11:06:07 52° N 11:09:19 10° ENE daylight
04 Sep - 12:39:33 10° WNW 12:42:46 59° NNE 12:45:59 10° E daylight
04 Sep - 14:16:00 10° WNW 14:19:06 42° SSW 14:22:11 10° SE daylight
05 Sep - 08:33:01 10° SW 08:36:01 35° SSE 08:39:03 10° E daylight
05 Sep - 10:09:05 10° W 10:12:18 64° NNW 10:15:33 10° ENE daylight
05 Sep - 11:45:46 10° WNW 11:48:57 50° N 11:52:09 10° E daylight
05 Sep - 13:22:12 10° WNW 13:25:27 68° SSW 13:28:40 10° ESE daylight
05 Sep - 14:59:33 10° WSW 15:01:23 14° SW 15:03:08 10° S daylight
06 Sep - 07:39:52 10° SSW 07:42:25 22° SE 07:45:01 10° E daylight
06 Sep - 09:15:16 10° WSW 09:18:31 86° NNW 09:21:47 10° ENE daylight
06 Sep - 10:51:56 10° WNW 10:55:07 48° N 10:58:17 10° ENE daylight
06 Sep - 12:28:26 10° WNW 12:31:42 82° NNE 12:34:57 10° ESE daylight
06 Sep - 14:05:09 10° W 14:07:49 23° SW 14:10:28 10° SSE daylight
07 Sep - 06:47:19 10° SSE 06:48:52 13° SE 06:50:30 10° ESE daylight
07 Sep - 08:21:33 10° SW 08:24:46 64° SSE 08:28:00 10° ENE daylight
07 Sep - 09:58:02 10° W 10:01:14 51° N 10:04:25 10° ENE daylight
07 Sep - 11:34:38 10° WNW 11:37:53 62° NNE 11:41:07 10° E daylight
07 Sep - 13:11:08 10° WNW 13:14:11 38° SSW 13:17:13 10° SE daylight
